STARLINK-6087, 56801

Orbit data source: Space-Track

STARLINK-6087, 56801 is a payload satellite owned by SpaceX/Seattle (US) in LEO that was launched on Wed, 31 May 2023 UTC via an FALCON 9 launch vehicle from the Air Force Western Test Range (AFWTR). Payload-class satellites include a variety of spacecraft equipped with specific instruments for various scientific and technological missions. These include communications satellites like Starlink; space stations such as the ISS; scientific satellites like the Hubble; Earth observation satellites from companies like Planet Labs, Umbra, and HawkEye 360; GPS; miniature CubeSats for education and research; and military/defense satellites.

Loading next visibility...
Identifier
56801, 2023-078AL
Orbit
LEO
Last TLE update
13 hours ago
Origin
Manufacturer
SpaceX/Seattle
Mission
Operational Commercial Communications
Bus & Motor
STARLINK, Unknown motor
Mass
305 kg wet, ~290 kg dry
Launch date (UTC)
2023-05-31 (2 years ago)
Launch vehicle
FALCON 9
Launch site
Air Force Western Test Range (AFWTR)
Object type
Payload
Rocket body
Debris
Shape & HBR
Box + 1 Pan, 9 m
Radar Cross Section
11.087 m², Large (>1 m²)

Expand to show TLE details & history

TLE from 13 hours ago
0 STARLINK-6087
1 56801U 23078AL  25131.38135323  .00000036  00000-0  10802-4 0  9994
2 56801  70.0002   6.5627 0003100 271.8459  88.2345 14.98332044108150
Epoch: 2025-05-11T09:09Z
Definitive object data (Epoch: 2025-05-11T09:09:08.919Z)
Latitude
-0°
Longitude
-0.13407°
Altitude
574.408 km
Speed
7.574 km/s
True Right ascension
00h 26m 15s
True Declination
0° 00' 00"
Sunlit
Object was in daylight at TLE epoch
Visualization TLE readout
Latitude
24.99808°
Longitude
8.22437°
Altitude
575.496 km
Speed
7.575 km/s
Apparent Right ascension
22h 15m 28s
Apparent Declination
-8° 51' 27"
Sunlit
Object is in daylight
Visualization observer readout
Local Sidereal Time
06:24:36
Azimuth
284.79° WNW
Elevation
-30.237°
Doppler factor
1
Orbital elements
Apogee altitude
572.152 km
Perigee altitude
567.844 km
Semi-major axis
6,948.135 km
Eccentricity
0.00031
Inclination
70.0002°
RAAN
6.5627°
Arg. of periapsis
271.8459°
True anomaly
88.27001°
Mean anomaly
88.2345°
Eccentric anomaly
88.25225°
Mean motion
3.74749 °/min
BSTAR
0.000010802
Orbital period
96.06 mins
Loading maneuver chart data...
Loading SW <> Apogee altitude chart data...
Loading historical data...
Loading historical data...
Loading historical data...
Loading historical data...
Loading historical data...
Loading historical data...
Loading historical data...

STARLINK-6087 Visibility forecast

Observer location: undefined°, undefined°

Span
Click to sort rows by Start time (UTC) header in descending order
Start Az.
Max El. time (UTC)
Max El. Az.
Max El.
End time (UTC)
End Az.
5 mins2025-05-12 01:43:19.034Z17.576° NNE2025-05-12 01:45:19.034Z52.442° ENE19.184°2025-05-12 01:48:19.034Z101.48° ESE
6 mins2025-05-12 03:21:19.034Z307.491° NW2025-05-12 03:24:19.034Z236.619° WSW28.873°2025-05-12 03:27:19.034Z188.511° SSW
6 mins2025-05-12 17:21:19.034Z229.948° WSW2025-05-12 17:23:19.034Z272.493° WNW36.22°2025-05-12 17:27:19.034Z11.703° NNE
|